Skip Page Navigation
NASA JPL Caltech
NASA Logo - Jet Propulsion Laboratory + View the NASA Portal
+ Center for Near-Earth Object Studies
JPL Home Earth Solar System Stars & Galaxies Technology
JPL Solar System Dynamics
BODIES ORBITS EPHEMERIDES TOOLS PHYSICAL DATA DISCOVERY FAQ SITE MAP
JPL Small-Body Database Browser
Search: [ help ]  
(2005 VX3)
Classification: TransNeptunian Object          SPK-ID: 3299811
Ephemeris | Orbit Diagram | Orbital Elements | Physical Parameters ]

[ show orbit diagram ]
Orbital Elements at Epoch 2459396.5 (2021-Jul-01.0) TDB
Reference: JPL 4 (heliocentric ecliptic J2000)
 Element Value Uncertainty (1-sigma)   Units 
e .9951090286981785 0.00082481  
a 838.416418408293 141.46 au
q 4.10067064141091 0.00034054 au
i 112.3658600084987 0.0078156 deg
node 255.2749522005242 0.0016428 deg
peri 196.2374482627182 0.010763 deg
M .2296768412251391 0.058126 deg
tp 2453739.283566702576
(2006-Jan-03.78356670)
0.059461 TDB
period 8867232.347516973
24277.16
2.2441e+06
6144
d
yr
n 4.059891360586803E-5 1.0275e-05 deg/d
Q 1672.732166175175 282.23 au
  Orbit Determination Parameters
   # obs. used (total)      53  
   data-arc span      81 days  
   first obs. used      2005-11-01  
   last obs. used      2006-01-21  
   planetary ephem.      DE441  
   SB-pert. ephem.      SB441-N16  
   condition code      4  
   norm. resid. RMS      .60486  
   source      ORB  
   producer      Otto Matic  
   solution date      2021-Apr-14 23:09:41  

Additional Information
 Earth MOID = 3.14387 au 
 Jupiter MOID = .893676 au 
 T_jup = -0.948 
[ hide covariance matrix ]
Orbital Elements at Epoch 2453693.5 (2005-Nov-19.0) TDB
Reference: JPL 4 (heliocentric ecliptic J2000)
 Element Value Uncertainty (1-sigma)   Units 
e .9980447817584371 0.00082917  
q 4.115475072070259 0.00038801 au
tp 2453745.774916254681
(2006-Jan-10.27491625)
0.06997 TDB
node 255.2651649795546 0.0015816 deg
peri 196.4408243576761 0.01063 deg
i 112.4218389623087 0.0078087 deg
  Orbit Determination Parameters
   # obs. used (total)      53  
   data-arc span      81 days  
   first obs. used      2005-11-01  
   last obs. used      2006-01-21  
   planetary ephem.      DE441  
   SB-pert. ephem.      SB441-N16  
   condition code      4  
   norm. resid. RMS      .60486  
   source      ORB  
   producer      Otto Matic  
   solution date      2021-Apr-14 23:09:41  

Additional Information
 Jupiter MOID = .893676 au 
 T_jup = -0.948 
Orbit Covariance (6×6)
  e q tp node peri i
e 6.87529172180963E-7 3.20937050103838E-7 -4.768047168152667E-5 1.309815925877586E-6 -6.883268424031602E-6 6.467660718075322E-6
q 3.20937050103838E-7 1.505543210622119E-7 -2.327473547907344E-5 6.107144826239464E-7 -3.382709560413558E-6 3.021207903252639E-6
tp -4.768047168152667E-5 -2.327473547907344E-5 .004895766517641962 -8.91293155357532E-5 .0007420165761977853 -.0004489378770545301
node 1.309815925877586E-6 6.107144826239464E-7 -8.91293155357532E-5 2.501478844961837E-6 -1.282865047734327E-5 1.234310470804432E-5
peri -6.883268424031602E-6 -3.382709560413558E-6 .0007420165761977853 -1.282865047734327E-5 .0001129914603118841 -6.481621249656616E-5
i 6.467660718075322E-6 3.021207903252639E-6 -.0004489378770545301 1.234310470804432E-5 -6.481621249656616E-5 6.097654325815304E-5

Ephemeris | Orbit Diagram | Orbital Elements | Physical Parameters ]

Physical Parameter Table
Parameter Symbol Value Units Sigma Reference Notes
absolute magnitude H 14.1   n/a MPO97960  
Ephemeris | Orbit Diagram | Orbital Elements | Physical Parameters ]
ABOUT SSD CREDITS/AWARDS PRIVACY/COPYRIGHT GLOSSARY LINKS
FirstGov 2021-Jul-31 16:59 UT
(server date/time)  
NASA Home Page
Site Manager:   Ryan S. Park
Webmaster  Alan B. Chamberlin